User: anonymous   Login
Location: Unspecified
(0.0000°N, 0.0000°E)
Time: 16:04:29
(UTC+00:00)
Language:

NAVSTAR 65 (USA 213) - Orbit

View from above orbital plane
View from above orbital plane
View from above satellite
View from above satellite

Ground track
Ground track

The orbit data is extracted from the following two-line orbital elements,

1 36585U 10022A   16151.43021878 -.00000049  00000-0  00000+0 0  9992
2 36585  56.0691 355.7843 0054539  42.6533 329.5806  2.00555264 43986
Epoch (UTC): 30 May 2016 10:19:30
Eccentricity: 0.0054539
inclination: 56.0691°
perigee height: 20038 km
apogee height: 20327 km
right ascension of ascending node: 355.7843°
argument of perigee: 42.6533°
revolutions per day: 2.00555264
mean anomaly at epoch: 329.5806°
orbit number at epoch: 4398

The dashed part of the orbit path shows where the satellite is in the earth's shadow,  

DLR